User: anonymous   Login
Location: Campillo
(40.8621°N, 4.2488°W)
Time: 05:36:44
(UTC+00:00)
Language:

ERS-1 Rocket - Orbit

View from above orbital plane
View from above orbital plane
View from above satellite
View from above satellite

Ground track
Ground track

The orbit data is extracted from the following two-line orbital elements,

1 21610U 91050F   21210.45379360  .00000023  00000-0  20754-4 0  9995
2 21610  98.4215 280.5720 0004419 111.8716 258.7288 14.40957419576314
Epoch (UTC): 29 July 2021 10:53:27
Eccentricity: 0.0004419
inclination: 98.4215°
perigee height: 752 km
apogee height: 758 km
right ascension of ascending node: 280.5720°
argument of perigee: 111.8716°
revolutions per day: 14.40957419
mean anomaly at epoch: 258.7288°
orbit number at epoch: 57631

The dashed part of the orbit path shows where the satellite is in the earth's shadow,  

DLR